Location: Blackrock Ranger Station
(36.0936°N, 118.2611°W)
Time: 07:32:06
(UTC-07:00)

AO-7 - Pass Details

Date: 21 February 2026
Orbit: 1440 x 1458 km, 102.0° (Epoch: 15 March)

Event Time Altitude Azimuth Distance (km) Brightness Sun altitude
Rises 04:41:09 0° 36° (NE) 4,560 ? -23.4°
Reaches altitude 10° 04:45:25 10° 56° (ENE) 3,579 ? -22.5°
Maximum altitude 04:50:18 17° 93° (E) 3,088 ? -21.5°
Drops below altitude 10° 04:55:09 10° 129° (SE) 3,572 ? -20.5°
Sets 04:59:20 0° 149° (SSE) 4,546 ? -19.7°
